Time,TemperatureF,DewpointF,PressureIn,WindDirection,WindDirectionDegrees,WindSpeedMPH,WindSpeedGustMPH,Humidity,HourlyPrecipIn,Conditions,Clouds,dailyrainin,SoftwareType,DateUTC
2013-01-24 00:02:00,53.4,50.5,30.30,SE,138,1.0,3.0,90,0.00,,,0.00,meteohub,2013-01-24 06:02:00,
2013-01-24 00:17:00,53.1,50.2,30.30,SE,138,0.0,3.0,90,0.00,,,0.00,meteohub,2013-01-24 06:17:00,
2013-01-24 00:32:00,53.2,50.0,30.31,SSE,158,2.0,3.0,89,0.00,,,0.00,meteohub,2013-01-24 06:32:00,
2013-01-24 00:47:00,54.3,50.9,30.30,South,184,3.0,6.0,88,0.00,,,0.00,meteohub,2013-01-24 06:47:00,
2013-01-24 01:17:00,55.2,50.7,30.30,South,188,2.0,6.0,85,0.00,,,0.00,meteohub,2013-01-24 07:17:00,
2013-01-24 01:32:00,54.9,51.1,30.30,South,182,3.0,6.0,87,0.00,,,0.00,meteohub,2013-01-24 07:32:00,
2013-01-24 01:47:00,55.9,52.2,30.30,SSW,212,1.0,9.0,87,0.00,,,0.00,meteohub,2013-01-24 07:47:00,
2013-01-24 02:02:00,56.1,52.3,30.30,SSW,208,3.0,7.0,87,0.00,,,0.00,meteohub,2013-01-24 08:02:00,
2013-01-24 02:32:00,55.6,52.2,30.29,South,190,4.0,5.0,88,0.00,,,0.00,meteohub,2013-01-24 08:32:00,
2013-01-24 02:47:00,55.4,52.2,30.30,South,175,5.0,7.0,89,0.00,,,0.00,meteohub,2013-01-24 08:47:00,
2013-01-24 03:02:00,55.9,52.7,30.29,SSW,212,4.0,10.0,89,0.00,,,0.00,meteohub,2013-01-24 09:02:00,
2013-01-24 03:17:00,55.8,52.5,30.29,South,190,0.0,8.0,89,0.00,,,0.00,meteohub,2013-01-24 09:17:00,
2013-01-24 03:32:00,55.6,52.3,30.29,South,182,0.0,7.0,89,0.00,,,0.00,meteohub,2013-01-24 09:32:00,
2013-01-24 03:47:00,55.2,52.0,30.29,South,179,0.0,7.0,89,0.00,,,0.00,meteohub,2013-01-24 09:47:00,
2013-01-24 04:02:00,54.3,51.4,30.30,South,179,0.0,1.0,90,0.00,,,0.00,meteohub,2013-01-24 10:02:00,
2013-01-24 04:17:00,53.4,50.9,30.30,SE,133,1.0,0.0,91,0.00,,,0.00,meteohub,2013-01-24 10:17:00,
2013-01-24 04:32:00,53.1,50.7,30.30,SE,133,0.0,3.0,92,0.00,,,0.00,meteohub,2013-01-24 10:32:00,
2013-01-24 04:47:00,52.7,50.4,30.30,SE,133,0.0,0.0,92,0.00,,,0.00,meteohub,2013-01-24 10:47:00,
2013-01-24 05:02:00,52.3,50.0,30.30,SE,133,0.0,0.0,92,0.00,,,0.00,meteohub,2013-01-24 11:02:00,
2013-01-24 05:17:00,51.6,49.5,30.30,SE,133,0.0,1.0,92,0.00,,,0.00,meteohub,2013-01-24 11:17:00,
2013-01-24 05:32:00,52.0,50.0,30.31,SE,133,0.0,2.0,93,0.00,,,0.00,meteohub,2013-01-24 11:32:00,
2013-01-24 05:47:00,52.3,50.4,30.32,SE,133,0.0,0.0,93,0.00,,,0.00,meteohub,2013-01-24 11:47:00,
2013-01-24 06:02:00,52.3,50.0,30.32,SE,133,0.0,1.0,92,0.00,,,0.00,meteohub,2013-01-24 12:02:00,
2013-01-24 06:17:00,52.2,49.8,30.32,SE,133,0.0,0.0,92,0.00,,,0.00,meteohub,2013-01-24 12:17:00,
2013-01-24 06:32:00,52.0,50.0,30.32,SSE,152,2.0,0.0,93,0.00,,,0.00,meteohub,2013-01-24 12:32:00,
2013-01-24 06:47:00,52.3,50.0,30.32,SSE,152,0.0,3.0,92,0.00,,,0.00,meteohub,2013-01-24 12:47:00,
2013-01-24 07:02:00,51.8,49.8,30.32,SSE,152,0.0,1.0,93,0.00,,,0.00,meteohub,2013-01-24 13:02:00,
2013-01-24 07:17:00,51.8,49.8,30.32,SSE,152,1.0,1.0,93,0.00,,,0.00,meteohub,2013-01-24 13:17:00,
2013-01-24 07:32:00,51.8,50.2,30.33,SSE,152,1.0,2.0,94,0.00,,,0.00,meteohub,2013-01-24 13:32:00,
2013-01-24 07:47:00,52.2,50.5,30.33,SSE,152,0.0,2.0,94,0.00,,,0.00,meteohub,2013-01-24 13:47:00,
2013-01-24 08:02:00,52.5,50.9,30.33,SSE,152,0.0,2.0,94,0.00,,,0.00,meteohub,2013-01-24 14:02:00,
2013-01-24 08:17:00,53.2,50.9,30.33,South,170,1.0,3.0,92,0.00,,,0.00,meteohub,2013-01-24 14:17:00,
2013-01-24 08:32:00,53.8,51.3,30.34,South,170,0.0,3.0,91,0.00,,,0.00,meteohub,2013-01-24 14:32:00,
2013-01-24 08:47:00,54.3,51.4,30.34,South,170,1.0,3.0,90,0.00,,,0.00,meteohub,2013-01-24 14:47:00,
2013-01-24 09:02:00,55.2,52.0,30.34,South,173,2.0,3.0,89,0.00,,,0.00,meteohub,2013-01-24 15:02:00,
2013-01-24 09:17:00,55.6,52.2,30.34,South,189,3.0,4.0,88,0.00,,,0.00,meteohub,2013-01-24 15:17:00,
2013-01-24 09:32:00,56.1,52.7,30.35,South,183,2.0,6.0,88,0.00,,,0.00,meteohub,2013-01-24 15:32:00,
2013-01-24 09:47:00,57.0,53.2,30.35,South,174,3.0,6.0,87,0.00,,,0.00,meteohub,2013-01-24 15:47:00,
2013-01-24 10:02:00,57.6,53.4,30.35,SSW,199,1.0,7.0,86,0.00,,,0.00,meteohub,2013-01-24 16:02:00,
2013-01-24 10:17:00,58.6,54.1,30.35,South,180,5.0,6.0,85,0.00,,,0.00,meteohub,2013-01-24 16:17:00,
2013-01-24 10:32:00,59.4,54.9,30.35,SSW,200,2.0,6.0,85,0.00,,,0.00,meteohub,2013-01-24 16:32:00,
2013-01-24 10:47:00,59.5,54.7,30.34,SSW,192,3.0,4.0,84,0.00,,,0.00,meteohub,2013-01-24 16:47:00,
2013-01-24 11:02:00,61.0,55.4,30.33,SSW,199,4.0,6.0,82,0.00,,,0.00,meteohub,2013-01-24 17:02:00,
2013-01-24 11:17:00,62.1,55.4,30.32,South,179,4.0,9.0,79,0.00,,,0.00,meteohub,2013-01-24 17:17:00,
2013-01-24 11:32:00,63.1,55.8,30.32,South,184,4.0,6.0,77,0.00,,,0.00,meteohub,2013-01-24 17:32:00,
2013-01-24 11:47:00,63.7,55.9,30.31,South,172,4.0,7.0,76,0.00,,,0.00,meteohub,2013-01-24 17:47:00,
2013-01-24 12:02:00,63.9,56.1,30.30,South,188,5.0,8.0,76,0.00,,,0.00,meteohub,2013-01-24 18:02:00,
2013-01-24 12:17:00,64.0,55.9,30.29,South,180,5.0,8.0,75,0.00,,,0.00,meteohub,2013-01-24 18:17:00,
2013-01-24 12:32:00,64.6,56.5,30.28,South,182,5.0,8.0,75,0.00,,,0.00,meteohub,2013-01-24 18:32:00,
2013-01-24 12:47:00,64.8,55.9,30.28,South,179,5.0,9.0,73,0.00,,,0.00,meteohub,2013-01-24 18:47:00,
2013-01-24 13:02:00,64.9,56.1,30.27,South,183,4.0,7.0,73,0.00,,,0.00,meteohub,2013-01-24 19:02:00,
2013-01-24 13:32:00,64.8,55.9,30.26,SSW,194,6.0,12.0,73,0.00,,,0.00,meteohub,2013-01-24 19:32:00,
2013-01-24 13:47:00,64.4,56.3,30.26,South,179,9.0,13.0,75,0.00,,,0.00,meteohub,2013-01-24 19:47:00,
2013-01-24 14:02:00,64.4,55.9,30.25,SSE,163,8.0,14.0,74,0.00,,,0.00,meteohub,2013-01-24 20:02:00,
2013-01-24 14:17:00,64.6,56.5,30.25,SSE,159,9.0,14.0,75,0.00,,,0.00,meteohub,2013-01-24 20:17:00,
2013-01-24 14:32:00,64.8,56.3,30.24,SSW,195,10.0,14.0,74,0.00,,,0.00,meteohub,2013-01-24 20:32:00,
2013-01-24 14:47:00,64.6,56.5,30.24,SE,131,6.0,12.0,75,0.00,,,0.00,meteohub,2013-01-24 20:47:00,
2013-01-24 15:02:00,64.4,56.7,30.24,SSE,162,8.0,12.0,76,0.00,,,0.00,meteohub,2013-01-24 21:02:00,
2013-01-24 15:17:00,64.0,56.7,30.24,East,100,3.0,10.0,77,0.00,,,0.00,meteohub,2013-01-24 21:17:00,
2013-01-24 15:47:00,64.2,56.8,30.24,South,176,5.0,13.0,77,0.00,,,0.00,meteohub,2013-01-24 21:47:00,
2013-01-24 16:02:00,64.0,57.0,30.23,SSW,202,5.0,11.0,78,0.00,,,0.00,meteohub,2013-01-24 22:02:00,
2013-01-24 16:17:00,63.3,57.0,30.23,SSE,152,2.0,7.0,80,0.00,,,0.00,meteohub,2013-01-24 22:17:00,
2013-01-24 16:32:00,62.1,56.5,30.24,SE,142,3.0,6.0,82,0.00,,,0.00,meteohub,2013-01-24 22:32:00,
2013-01-24 17:02:00,61.0,56.5,30.24,ESE,119,1.0,7.0,85,0.00,,,0.00,meteohub,2013-01-24 23:02:00,
2013-01-24 17:17:00,60.6,56.1,30.25,SE,140,3.0,5.0,85,0.00,,,0.00,meteohub,2013-01-24 23:17:00,
2013-01-24 17:32:00,60.3,56.1,30.25,SSE,163,2.0,6.0,86,0.00,,,0.00,meteohub,2013-01-24 23:32:00,
2013-01-24 17:47:00,60.1,56.1,30.25,SE,145,3.0,6.0,87,0.00,,,0.00,meteohub,2013-01-24 23:47:00,
2013-01-24 18:02:00,59.9,55.8,30.26,SSE,165,1.0,5.0,86,0.00,,,0.00,meteohub,2013-01-25 00:02:00,
2013-01-24 18:17:00,60.4,55.9,30.26,SSE,147,2.0,7.0,85,0.00,,,0.00,meteohub,2013-01-25 00:17:00,
2013-01-24 18:32:00,60.1,55.9,30.26,SSE,159,1.0,6.0,86,0.00,,,0.00,meteohub,2013-01-25 00:32:00,
2013-01-24 18:47:00,60.1,56.1,30.27,SSE,168,1.0,4.0,87,0.00,,,0.00,meteohub,2013-01-25 00:47:00,
2013-01-24 19:02:00,60.1,55.9,30.27,South,181,2.0,5.0,86,0.00,,,0.00,meteohub,2013-01-25 01:02:00,
2013-01-24 19:17:00,60.3,56.1,30.28,South,175,0.0,4.0,86,0.00,,,0.00,meteohub,2013-01-25 01:17:00,
2013-01-24 19:32:00,60.1,56.1,30.28,South,183,2.0,5.0,87,0.00,,,0.00,meteohub,2013-01-25 01:32:00,
2013-01-24 19:47:00,59.9,55.9,30.27,South,183,2.0,4.0,87,0.00,,,0.00,meteohub,2013-01-25 01:47:00,
2013-01-24 20:02:00,59.7,56.1,30.27,South,187,0.0,3.0,88,0.00,,,0.00,meteohub,2013-01-25 02:02:00,
2013-01-24 20:17:00,59.7,56.1,30.27,SSE,167,0.0,3.0,88,0.00,,,0.00,meteohub,2013-01-25 02:17:00,
2013-01-24 20:32:00,59.5,56.3,30.27,SSE,167,1.0,3.0,89,0.00,,,0.00,meteohub,2013-01-25 02:32:00,
2013-01-24 20:47:00,59.5,56.3,30.27,SE,133,2.0,4.0,89,0.00,,,0.00,meteohub,2013-01-25 02:47:00,
2013-01-24 21:02:00,59.5,56.3,30.27,SE,144,2.0,4.0,89,0.00,,,0.00,meteohub,2013-01-25 03:02:00,
2013-01-24 21:17:00,59.5,56.7,30.27,SE,139,1.0,4.0,90,0.00,,,0.00,meteohub,2013-01-25 03:17:00,
2013-01-24 21:32:00,59.5,56.7,30.28,SE,129,1.0,3.0,90,0.00,,,0.00,meteohub,2013-01-25 03:32:00,
2013-01-24 21:47:00,59.4,56.1,30.28,South,177,2.0,2.0,89,0.00,,,0.00,meteohub,2013-01-25 03:47:00,
2013-01-24 22:02:00,59.2,56.3,30.28,South,177,0.0,2.0,90,0.00,,,0.00,meteohub,2013-01-25 04:02:00,
2013-01-24 22:17:00,59.2,56.3,30.28,South,182,0.0,3.0,90,0.00,,,0.00,meteohub,2013-01-25 04:17:00,
2013-01-24 22:32:00,59.0,56.1,30.28,South,182,1.0,2.0,90,0.00,,,0.00,meteohub,2013-01-25 04:32:00,
2013-01-24 22:47:00,58.6,55.8,30.27,South,182,0.0,3.0,90,0.00,,,0.00,meteohub,2013-01-25 04:47:00,
2013-01-24 23:02:00,58.6,55.8,30.27,South,189,0.0,6.0,90,0.00,,,0.00,meteohub,2013-01-25 05:02:00,
2013-01-24 23:17:00,58.6,55.4,30.27,SSE,155,2.0,5.0,89,0.00,,,0.00,meteohub,2013-01-25 05:17:00,
2013-01-24 23:32:00,58.3,55.4,30.27,SSE,161,2.0,3.0,90,0.00,,,0.00,meteohub,2013-01-25 05:32:00,
2013-01-24 23:47:00,57.9,55.2,30.27,SSE,157,2.0,3.0,91,0.00,,,0.00,meteohub,2013-01-25 05:47:00,